SYN002 LSZH-LIMC

Flight info

Callsign SYN002
Flight time 1h 32m
Altitude 20000
Route VEBIT T53 OBEDU/N0364F220 T53 GERSA/N0360F210 DCT SOSON DCT DEGAD DCT BASGO Z424 AKASU/N0351F190 Z424 RIXUV
Aircraft BCS3/M-SBDE2E3GIRWXY/LB1

Departure

Time 2026-05-05 20:32
Airport Zürich Airport (LSZH)

Arrival

Time 2026-05-05 22:05
Airport Milan Malpensa International Airport (LIMC)
Time Latitude Longitude Altitude Speed Heading
2026-05-05 19:52 47.46073 8.55238 1399 ft 0 kts
2026-05-05 20:18 47.46062 8.55236 1406 ft 2 kts
2026-05-05 20:18 47.46046 8.55234 1401 ft 2 kts
2026-05-05 20:18 47.46030 8.55231 1406 ft 2 kts 20°
2026-05-05 20:19 47.46016 8.55219 1408 ft 2 kts 47°
2026-05-05 20:19 47.46007 8.55199 1407 ft 2 kts 73°
2026-05-05 20:19 47.46004 8.55176 1406 ft 2 kts 98°
2026-05-05 20:19 47.46005 8.55171 1405 ft 0 kts 106°
2026-05-05 20:21 47.46003 8.55178 1406 ft 2 kts 106°
2026-05-05 20:22 47.45996 8.55206 1407 ft 4 kts 112°
2026-05-05 20:22 47.45983 8.55267 1396 ft 9 kts 101°
2026-05-05 20:22 47.45974 8.55366 1399 ft 6 kts 96°
2026-05-05 20:22 47.45974 8.55368 1397 ft 0 kts 96°
2026-05-05 20:24 47.45973 8.55384 1401 ft 2 kts 96°
2026-05-05 20:24 47.45972 8.55400 1397 ft 2 kts 95°
2026-05-05 20:24 47.45971 8.55416 1400 ft 2 kts 95°
2026-05-05 20:24 47.45970 8.55432 1398 ft 2 kts 95°
2026-05-05 20:25 47.45969 8.55450 1398 ft 2 kts 95°
2026-05-05 20:25 47.45968 8.55457 1404 ft 0 kts 95°
2026-05-05 20:26 47.45968 8.55458 1404 ft 0 kts 95°
2026-05-05 20:26 47.45967 8.55478 1400 ft 6 kts 95°
2026-05-05 20:27 47.45960 8.55579 1398 ft 12 kts 96°
2026-05-05 20:27 47.45951 8.55702 1400 ft 12 kts 96°
2026-05-05 20:27 47.45944 8.55792 1401 ft 0 kts 96°
2026-05-05 20:28 47.45943 8.55811 1401 ft 7 kts 96°
2026-05-05 20:28 47.45934 8.55933 1410 ft 14 kts 96°
2026-05-05 20:28 47.45924 8.56070 1405 ft 13 kts 96°
2026-05-05 20:29 47.45914 8.56205 1405 ft 14 kts 96°
2026-05-05 20:29 47.45942 8.56306 1407 ft 10 kts 25°
2026-05-05 20:29 47.46001 8.56324 1407 ft 0 kts
2026-05-05 20:30 47.46006 8.56324 1408 ft 2 kts
2026-05-05 20:30 47.46040 8.56331 1407 ft 8 kts
2026-05-05 20:31 47.46124 8.56343 1405 ft 16 kts
2026-05-05 20:31 47.46237 8.56296 1400 ft 11 kts 316°
2026-05-05 20:31 47.46240 8.56293 1406 ft 0 kts 320°
2026-05-05 20:31 47.46250 8.56280 1404 ft 7 kts 320°
2026-05-05 20:32 47.46399 8.56079 1400 ft 62 kts 318°
2026-05-05 20:32 47.46881 8.55419 1398 ft 125 kts 317°
2026-05-05 20:32 47.47599 8.54417 1815 ft 141 kts 314°
2026-05-05 20:32 47.48349 8.53398 2471 ft 153 kts 318°
2026-05-05 20:33 47.49194 8.52461 3261 ft 151 kts 321°
2026-05-05 20:33 47.50072 8.51610 3981 ft 156 kts 321°
2026-05-05 20:33 47.51044 8.50722 4556 ft 171 kts 322°
2026-05-05 20:33 47.52111 8.49737 4955 ft 193 kts 314°
2026-05-05 20:34 47.52888 8.48050 5031 ft 201 kts 285°
2026-05-05 20:34 47.53103 8.46013 5021 ft 204 kts 267°
2026-05-05 20:34 47.52936 8.43925 5013 ft 205 kts 257°
2026-05-05 20:34 47.52547 8.41896 4998 ft 205 kts 251°
2026-05-05 20:35 47.51980 8.39960 4986 ft 210 kts 235°
2026-05-05 20:35 47.50738 8.38556 5017 ft 251 kts 206°
2026-05-05 20:35 47.49011 8.37815 5003 ft 253 kts 196°
2026-05-05 20:35 47.47318 8.37273 5003 ft 254 kts 196°
2026-05-05 20:36 47.45560 8.36713 4993 ft 255 kts 196°
2026-05-05 20:36 47.43831 8.36161 5002 ft 256 kts 196°
2026-05-05 20:36 47.42088 8.35601 4983 ft 255 kts 196°
2026-05-05 20:36 47.40388 8.35055 5000 ft 252 kts 195°
2026-05-05 20:37 47.38568 8.35155 5010 ft 269 kts 168°
2026-05-05 20:37 47.37403 8.35814 5030 ft 276 kts 160°
2026-05-05 20:37 47.35129 8.37476 6482 ft 268 kts 158°
2026-05-05 20:37 47.33443 8.38736 7389 ft 272 kts 157°
2026-05-05 20:38 47.31757 8.39993 8338 ft 275 kts 156°
2026-05-05 20:38 47.30045 8.41269 9307 ft 276 kts 156°
2026-05-05 20:38 47.28329 8.42548 10198 ft 278 kts 156°
2026-05-05 20:38 47.26546 8.43874 10618 ft 295 kts 156°
2026-05-05 20:39 47.24661 8.45276 10971 ft 311 kts 156°
2026-05-05 20:39 47.22705 8.46732 11548 ft 317 kts 156°
2026-05-05 20:39 47.21371 8.47726 11956 ft 321 kts 156°
2026-05-05 20:39 47.19388 8.49203 12580 ft 325 kts 156°
2026-05-05 20:40 47.17355 8.50691 13218 ft 329 kts 160°
2026-05-05 20:40 47.15140 8.51500 13841 ft 329 kts 175°
2026-05-05 20:40 47.12871 8.51903 14504 ft 329 kts 177°
2026-05-05 20:40 47.10585 8.52243 15150 ft 331 kts 177°
2026-05-05 20:41 47.08279 8.52578 15809 ft 334 kts 177°
2026-05-05 20:41 47.05961 8.52914 16456 ft 336 kts 177°
2026-05-05 20:41 47.03631 8.53250 17018 ft 339 kts 177°
2026-05-05 20:41 47.01258 8.53593 17650 ft 339 kts 177°
2026-05-05 20:42 46.98902 8.53934 18276 ft 343 kts 177°
2026-05-05 20:42 46.96531 8.54277 18883 ft 344 kts 177°
2026-05-05 20:42 46.94143 8.54621 19411 ft 346 kts 177°
2026-05-05 20:42 46.91726 8.54969 19851 ft 352 kts 177°
2026-05-05 20:43 46.89268 8.55321 19944 ft 355 kts 177°
2026-05-05 20:43 46.86842 8.55672 19940 ft 346 kts 177°
2026-05-05 20:43 46.84447 8.56016 19937 ft 346 kts 177°
2026-05-05 20:43 46.82043 8.56361 19929 ft 348 kts 177°
2026-05-05 20:44 46.79627 8.56708 19933 ft 349 kts 178°
2026-05-05 20:44 46.77218 8.57054 19948 ft 347 kts 177°
2026-05-05 20:44 46.74808 8.57399 19943 ft 349 kts 178°
2026-05-05 20:44 46.72394 8.57744 19937 ft 348 kts 178°
2026-05-05 20:45 46.67612 8.58425 19962 ft 347 kts 178°
2026-05-05 20:45 46.65207 8.58769 20555 ft 345 kts 178°
2026-05-05 20:45 46.62803 8.59110 21091 ft 348 kts 178°
2026-05-05 20:46 46.60387 8.59454 21672 ft 350 kts 178°
2026-05-05 20:46 46.57941 8.59799 21958 ft 359 kts 178°
2026-05-05 20:46 46.55446 8.60153 21982 ft 357 kts 178°
2026-05-05 20:46 46.53010 8.60501 21975 ft 348 kts 178°
2026-05-05 20:47 46.50596 8.60844 21976 ft 350 kts 178°
2026-05-05 20:47 46.48161 8.61187 21973 ft 354 kts 178°
2026-05-05 20:47 46.45716 8.61505 21966 ft 349 kts 182°
2026-05-05 20:47 46.43363 8.60942 21991 ft 343 kts 202°
2026-05-05 20:48 46.41224 8.59476 21747 ft 338 kts 209°
2026-05-05 20:48 46.39168 8.57767 21121 ft 340 kts 211°
2026-05-05 20:48 46.37165 8.56006 20980 ft 334 kts 212°
2026-05-05 20:48 46.35193 8.54251 20972 ft 334 kts 212°
2026-05-05 20:49 46.33168 8.52448 20989 ft 345 kts 212°
2026-05-05 20:49 46.31157 8.50655 20975 ft 333 kts 212°
2026-05-05 20:49 46.29221 8.48930 20983 ft 320 kts 212°
2026-05-05 20:49 46.27369 8.47280 20979 ft 307 kts 212°
2026-05-05 20:50 46.25803 8.45330 20980 ft 294 kts 234°
2026-05-05 20:50 46.24939 8.42703 20992 ft 286 kts 248°
2026-05-05 20:50 46.24494 8.39939 20981 ft 281 kts 260°
2026-05-05 20:50 46.24604 8.37119 20989 ft 287 kts 279°
2026-05-05 20:51 46.25586 8.34541 20987 ft 306 kts 309°
2026-05-05 20:51 46.27434 8.32926 20990 ft 321 kts 340°
2026-05-05 20:51 46.29681 8.32703 20997 ft 330 kts
2026-05-05 20:51 46.31924 8.33507 20991 ft 335 kts 19°
2026-05-05 20:52 46.34048 8.34886 20976 ft 333 kts 27°
2026-05-05 20:52 46.36030 8.36517 20974 ft 333 kts 31°
2026-05-05 20:52 46.37995 8.38322 20971 ft 336 kts 33°
2026-05-05 20:52 46.39939 8.40209 20966 ft 335 kts 34°
2026-05-05 20:53 46.41851 8.42118 20973 ft 333 kts 34°
2026-05-05 20:53 46.43662 8.44211 20955 ft 335 kts 51°
2026-05-05 20:53 46.44795 8.47105 20972 ft 328 kts 78°
2026-05-05 20:53 46.44978 8.50300 20976 ft 314 kts 105°
2026-05-05 20:54 46.44262 8.53219 20991 ft 305 kts 129°
2026-05-05 20:54 46.42868 8.55396 20978 ft 288 kts 152°
2026-05-05 20:54 46.41093 8.56557 20986 ft 277 kts 172°
2026-05-05 20:54 46.39187 8.56717 20986 ft 274 kts 189°
2026-05-05 20:55 46.37349 8.56107 20988 ft 268 kts 201°
2026-05-05 20:55 46.35654 8.55059 20963 ft 260 kts 207°
2026-05-05 20:55 46.34047 8.53775 20999 ft 270 kts 211°
2026-05-05 20:55 46.32436 8.52309 20993 ft 273 kts 213°
2026-05-05 20:56 46.30879 8.50799 20978 ft 265 kts 214°
2026-05-05 20:56 46.29364 8.49289 20994 ft 267 kts 215°
2026-05-05 20:56 46.27829 8.47739 20992 ft 269 kts 215°
2026-05-05 20:56 46.26387 8.46064 20967 ft 266 kts 231°
2026-05-05 20:57 46.25691 8.43574 21002 ft 280 kts 261°
2026-05-05 20:57 46.26052 8.40740 21005 ft 299 kts 291°
2026-05-05 20:57 46.27423 8.38449 20992 ft 311 kts 321°
2026-05-05 20:57 46.29482 8.37376 20996 ft 325 kts 352°
2026-05-05 20:58 46.31743 8.37845 20990 ft 334 kts 22°
2026-05-05 20:58 46.33706 8.39613 20999 ft 334 kts 37°
2026-05-05 20:58 46.35562 8.41673 20983 ft 336 kts 38°
2026-05-05 20:58 46.37430 8.43704 20972 ft 335 kts 37°
2026-05-05 20:59 46.39068 8.46050 20962 ft 331 kts 62°
2026-05-05 20:59 46.39767 8.49144 20986 ft 321 kts 92°
2026-05-05 20:59 46.39376 8.52210 20985 ft 303 kts 123°
2026-05-05 20:59 46.38066 8.54399 20984 ft 281 kts 155°
2026-05-05 21:00 46.36238 8.55169 20982 ft 273 kts 185°
2026-05-05 21:00 46.34473 8.54398 21011 ft 266 kts 210°
2026-05-05 21:00 46.32894 8.52940 20995 ft 272 kts 214°
2026-05-05 21:00 46.31352 8.51377 20979 ft 268 kts 215°
2026-05-05 21:01 46.29867 8.49852 20990 ft 264 kts 215°
2026-05-05 21:01 46.28332 8.48279 20988 ft 269 kts 215°
2026-05-05 21:01 46.26820 8.46711 20973 ft 264 kts 219°
2026-05-05 21:01 46.25818 8.44496 20999 ft 273 kts 251°
2026-05-05 21:02 46.25840 8.41689 21007 ft 294 kts 282°
2026-05-05 21:02 46.26941 8.39138 20992 ft 309 kts 312°
2026-05-05 21:02 46.28857 8.37675 20997 ft 321 kts 343°
2026-05-05 21:02 46.31112 8.37734 20994 ft 333 kts 14°
2026-05-05 21:03 46.33170 8.39260 21002 ft 335 kts 35°
2026-05-05 21:03 46.35043 8.41271 20989 ft 335 kts 37°
2026-05-05 21:03 46.36914 8.43291 20973 ft 335 kts 37°
2026-05-05 21:03 46.38690 8.45452 20955 ft 333 kts 54°
2026-05-05 21:04 46.39661 8.48423 20980 ft 324 kts 85°
2026-05-05 21:04 46.39544 8.51577 20981 ft 307 kts 116°
2026-05-05 21:04 46.38433 8.54049 20978 ft 286 kts 147°
2026-05-05 21:04 46.36703 8.55208 20987 ft 278 kts 177°
2026-05-05 21:05 46.34873 8.54809 21000 ft 265 kts 207°
2026-05-05 21:05 46.33285 8.53404 21008 ft 271 kts 215°
2026-05-05 21:05 46.31726 8.51801 20990 ft 270 kts 216°
2026-05-05 21:05 46.30236 8.50253 20986 ft 265 kts 215°
2026-05-05 21:06 46.28705 8.48672 20989 ft 269 kts 215°
2026-05-05 21:06 46.27186 8.47110 20983 ft 266 kts 215°
2026-05-05 21:06 46.25998 8.45164 20993 ft 269 kts 243°
2026-05-05 21:06 46.25743 8.42435 21005 ft 288 kts 274°
2026-05-05 21:07 46.26604 8.39705 21004 ft 307 kts 305°
2026-05-05 21:07 46.28338 8.37930 20993 ft 318 kts 335°
2026-05-05 21:07 46.30552 8.37576 20995 ft 330 kts
2026-05-05 21:07 46.32699 8.38800 20996 ft 336 kts 34°
2026-05-05 21:08 46.34604 8.40827 20990 ft 336 kts 38°
2026-05-05 21:08 46.36436 8.42843 20971 ft 335 kts 37°
2026-05-05 21:08 46.38296 8.44931 20961 ft 335 kts 47°
2026-05-05 21:08 46.39488 8.47748 20979 ft 327 kts 78°
2026-05-05 21:09 46.39621 8.50901 20977 ft 312 kts 109°
2026-05-05 21:09 46.38697 8.53635 20969 ft 291 kts 140°
2026-05-05 21:09 46.37073 8.55106 21005 ft 279 kts 171°
2026-05-05 21:09 46.35185 8.55047 20993 ft 267 kts 202°
2026-05-05 21:10 46.33581 8.53750 21014 ft 270 kts 214°
2026-05-05 21:10 46.32047 8.52165 20995 ft 270 kts 216°
2026-05-05 21:10 46.30521 8.50564 20983 ft 266 kts 215°
2026-05-05 21:10 46.29032 8.49018 20993 ft 269 kts 215°
2026-05-05 21:11 46.27513 8.47450 20987 ft 267 kts 215°
2026-05-05 21:11 46.26179 8.45647 20977 ft 265 kts 237°
2026-05-05 21:11 46.25716 8.43022 21002 ft 283 kts 268°
2026-05-05 21:11 46.26349 8.40249 21005 ft 305 kts 298°
2026-05-05 21:12 46.27953 8.38204 20996 ft 316 kts 329°
2026-05-05 21:12 46.30120 8.37534 20993 ft 327 kts
2026-05-05 21:12 46.32318 8.38462 20998 ft 336 kts 30°
2026-05-05 21:12 46.34229 8.40401 20998 ft 336 kts 37°
2026-05-05 21:13 46.36088 8.42446 20972 ft 335 kts 38°
2026-05-05 21:13 46.37947 8.44463 20977 ft 334 kts 40°
2026-05-05 21:13 46.39335 8.47105 20977 ft 330 kts 71°
2026-05-05 21:13 46.39690 8.50291 20981 ft 316 kts 102°
2026-05-05 21:14 46.38973 8.53145 20971 ft 296 kts 133°
2026-05-05 21:14 46.37432 8.54927 21001 ft 281 kts 165°
2026-05-05 21:14 46.35564 8.55195 20980 ft 266 kts 195°
2026-05-05 21:14 46.33897 8.54046 21010 ft 269 kts 213°
2026-05-05 21:15 46.32353 8.52479 20996 ft 271 kts 216°
2026-05-05 21:15 46.30842 8.50896 20979 ft 266 kts 215°
2026-05-05 21:15 46.29337 8.49332 20994 ft 268 kts 215°
2026-05-05 21:15 46.27817 8.47762 20987 ft 268 kts 215°
2026-05-05 21:16 46.26392 8.46085 20967 ft 264 kts 231°
2026-05-05 21:16 46.25728 8.43589 21002 ft 279 kts 262°
2026-05-05 21:16 46.26143 8.40788 21007 ft 300 kts 293°
2026-05-05 21:16 46.27589 8.38540 21001 ft 316 kts 323°
2026-05-05 21:17 46.29694 8.37567 20994 ft 326 kts 354°
2026-05-05 21:17 46.31922 8.38183 20996 ft 334 kts 25°
2026-05-05 21:17 46.33880 8.40024 21001 ft 337 kts 37°
2026-05-05 21:17 46.35749 8.42070 20974 ft 335 kts 38°
2026-05-05 21:18 46.37608 8.44072 20982 ft 333 kts 37°
2026-05-05 21:18 46.39143 8.46503 20973 ft 332 kts 65°
2026-05-05 21:18 46.39723 8.49692 20985 ft 319 kts 97°
2026-05-05 21:18 46.39209 8.52632 20988 ft 300 kts 127°
2026-05-05 21:19 46.37797 8.54693 20994 ft 284 kts 158°
2026-05-05 21:19 46.35948 8.55303 20957 ft 266 kts 189°
2026-05-05 21:19 46.34249 8.54376 21013 ft 268 kts 212°
2026-05-05 21:19 46.32686 8.52829 21001 ft 273 kts 216°
2026-05-05 21:20 46.31166 8.51237 20973 ft 266 kts 215°
2026-05-05 21:20 46.29668 8.49676 20996 ft 267 kts 216°
2026-05-05 21:20 46.28146 8.48101 20990 ft 268 kts 215°
2026-05-05 21:20 46.26660 8.46511 20962 ft 264 kts 223°
2026-05-05 21:21 46.25782 8.44193 20999 ft 274 kts 255°
2026-05-05 21:21 46.25950 8.41382 21000 ft 294 kts 286°
2026-05-05 21:21 46.27189 8.38961 21007 ft 313 kts 316°
2026-05-05 21:21 46.29199 8.37663 20998 ft 325 kts 347°
2026-05-05 21:22 46.31460 8.37919 20995 ft 332 kts 18°
2026-05-05 21:22 46.33466 8.39590 21009 ft 337 kts 37°
2026-05-05 21:22 46.35332 8.41643 20984 ft 337 kts 38°
2026-05-05 21:22 46.37189 8.43666 20975 ft 333 kts 37°
2026-05-05 21:23 46.38878 8.45953 20968 ft 334 kts 59°
2026-05-05 21:23 46.39672 8.49016 20984 ft 323 kts 90°
2026-05-05 21:23 46.39374 8.52108 20992 ft 303 kts 121°
2026-05-05 21:23 46.38112 8.54415 20996 ft 288 kts 152°
2026-05-05 21:24 46.36302 8.55351 20971 ft 272 kts 182°
2026-05-05 21:24 46.34549 8.54695 21006 ft 264 kts 210°
2026-05-05 21:24 46.32990 8.53187 21004 ft 273 kts 216°
2026-05-05 21:24 46.31468 8.51576 20984 ft 268 kts 216°
2026-05-05 21:25 46.29976 8.50006 20996 ft 265 kts 216°
2026-05-05 21:25 46.28460 8.48430 20988 ft 269 kts 215°
2026-05-05 21:25 46.27459 8.47397 20990 ft 267 kts 215°
2026-05-05 21:25 46.26146 8.45569 20975 ft 266 kts 238°
2026-05-05 21:26 46.25727 8.42923 21002 ft 282 kts 269°
2026-05-05 21:26 46.26855 8.39441 21007 ft 309 kts 310°
2026-05-05 21:26 46.28745 8.37859 21007 ft 324 kts 341°
2026-05-05 21:26 46.31002 8.37769 20991 ft 331 kts 11°
2026-05-05 21:27 46.33080 8.39204 21008 ft 335 kts 35°
2026-05-05 21:27 46.34352 8.40563 21004 ft 338 kts 37°
2026-05-05 21:27 46.36221 8.42613 20974 ft 334 kts 37°
2026-05-05 21:27 46.38071 8.44637 20972 ft 334 kts 43°
2026-05-05 21:28 46.39385 8.47353 20983 ft 330 kts 74°
2026-05-05 21:28 46.39661 8.50508 20977 ft 314 kts 104°
2026-05-05 21:28 46.38858 8.53351 20999 ft 297 kts 135°
2026-05-05 21:28 46.37271 8.55052 20996 ft 280 kts 166°
2026-05-05 21:29 46.35402 8.55217 20961 ft 265 kts 198°
2026-05-05 21:29 46.33776 8.54004 21003 ft 267 kts 214°
2026-05-05 21:29 46.32253 8.52415 20997 ft 270 kts 216°
2026-05-05 21:29 46.30746 8.50817 20979 ft 265 kts 216°
2026-05-05 21:30 46.29241 8.49242 20998 ft 270 kts 216°
2026-05-05 21:30 46.27721 8.47668 20991 ft 267 kts 215°
2026-05-05 21:30 46.26180 8.46300 20971 ft 264 kts 201°
2026-05-05 21:30 46.24349 8.46008 20996 ft 273 kts 175°
2026-05-05 21:31 46.22489 8.46778 21008 ft 281 kts 167°
2026-05-05 21:31 46.20601 8.47572 20989 ft 276 kts 171°
2026-05-05 21:31 46.18762 8.48131 20999 ft 274 kts 174°
2026-05-05 21:31 46.16864 8.48561 20998 ft 277 kts 176°
2026-05-05 21:32 46.14963 8.48911 20989 ft 273 kts 178°
2026-05-05 21:32 46.13084 8.49208 20993 ft 272 kts 178°
2026-05-05 21:32 46.11197 8.49540 20985 ft 275 kts 172°
2026-05-05 21:32 46.09365 8.50375 20996 ft 277 kts 165°
2026-05-05 21:33 46.07550 8.51356 20999 ft 280 kts 165°
2026-05-05 21:33 46.05722 8.52349 20804 ft 284 kts 165°
2026-05-05 21:33 46.03846 8.53366 20359 ft 291 kts 164°
2026-05-05 21:33 46.01938 8.54397 19939 ft 294 kts 164°
2026-05-05 21:34 46.00009 8.55439 19543 ft 298 kts 164°
2026-05-05 21:34 45.98067 8.56484 19247 ft 296 kts 164°
2026-05-05 21:34 45.96154 8.57519 18974 ft 295 kts 164°
2026-05-05 21:34 45.94206 8.58565 18455 ft 302 kts 164°
2026-05-05 21:35 45.92228 8.59627 17948 ft 304 kts 164°
2026-05-05 21:35 45.90265 8.60734 17485 ft 304 kts 157°
2026-05-05 21:35 45.88500 8.62438 17088 ft 306 kts 147°
2026-05-05 21:35 45.86833 8.64336 16674 ft 306 kts 146°
2026-05-05 21:36 45.85186 8.66248 16277 ft 303 kts 146°
2026-05-05 21:36 45.83557 8.68142 15871 ft 300 kts 145°
2026-05-05 21:36 45.81949 8.70007 15488 ft 296 kts 145°
2026-05-05 21:36 45.80360 8.71849 15099 ft 292 kts 145°
2026-05-05 21:37 45.78797 8.73659 14726 ft 287 kts 145°
2026-05-05 21:37 45.77266 8.75432 14504 ft 278 kts 145°
2026-05-05 21:37 45.75702 8.76980 14160 ft 271 kts 154°
2026-05-05 21:37 45.74076 8.78253 13857 ft 266 kts 155°
2026-05-05 21:38 45.72449 8.79498 13480 ft 264 kts 155°
2026-05-05 21:38 45.70833 8.80734 13088 ft 262 kts 155°
2026-05-05 21:38 45.69231 8.81960 12692 ft 261 kts 155°
2026-05-05 21:38 45.67636 8.83182 12291 ft 259 kts 155°
2026-05-05 21:39 45.66054 8.84395 11912 ft 257 kts 155°
2026-05-05 21:39 45.64481 8.85599 11514 ft 256 kts 154°
2026-05-05 21:39 45.62919 8.86796 11127 ft 254 kts 154°
2026-05-05 21:39 45.61370 8.87989 10741 ft 252 kts 152°
2026-05-05 21:40 45.60205 8.89827 10433 ft 253 kts 114°
2026-05-05 21:40 45.60052 8.92281 10253 ft 255 kts 78°
2026-05-05 21:40 45.60955 8.94413 10000 ft 256 kts 40°
2026-05-05 21:40 45.62565 8.95367 9735 ft 253 kts
2026-05-05 21:41 45.64222 8.94782 9456 ft 246 kts 327°
2026-05-05 21:41 45.65664 8.93471 9133 ft 246 kts 325°
2026-05-05 21:41 45.67105 8.92171 8876 ft 244 kts 326°
2026-05-05 21:41 45.68553 8.90900 8569 ft 243 kts 327°
2026-05-05 21:42 45.69883 8.89450 8227 ft 241 kts 304°
2026-05-05 21:42 45.70358 8.87253 8033 ft 230 kts 263°
2026-05-05 21:42 45.69729 8.85238 7995 ft 226 kts 223°
2026-05-05 21:42 45.68343 8.84323 8003 ft 228 kts 184°
2026-05-05 21:43 45.66768 8.84710 8006 ft 229 kts 163°
2026-05-05 21:43 45.65272 8.85513 7988 ft 230 kts 159°
2026-05-05 21:43 45.63807 8.86405 7856 ft 227 kts 158°
2026-05-05 21:43 45.62374 8.87313 7552 ft 227 kts 157°
2026-05-05 21:44 45.60965 8.88332 7235 ft 229 kts 143°
2026-05-05 21:44 45.60082 8.90193 7037 ft 230 kts 107°
2026-05-05 21:44 45.60149 8.92462 6995 ft 236 kts 71°
2026-05-05 21:44 45.61122 8.94350 7005 ft 240 kts 43°
2026-05-05 21:45 45.62562 8.95598 6966 ft 243 kts 12°
2026-05-05 21:45 45.64197 8.95376 7008 ft 238 kts 336°
2026-05-05 21:45 45.65696 8.94356 7039 ft 238 kts 332°
2026-05-05 21:45 45.67177 8.93279 7023 ft 239 kts 331°
2026-05-05 21:46 45.68642 8.92182 7000 ft 238 kts 328°
2026-05-05 21:46 45.69762 8.90521 6912 ft 236 kts 295°
2026-05-05 21:46 45.70039 8.88278 6797 ft 229 kts 260°
2026-05-05 21:46 45.69360 8.86253 6684 ft 225 kts 224°
2026-05-05 21:47 45.67999 8.85260 6564 ft 224 kts 186°
2026-05-05 21:47 45.66477 8.85631 6454 ft 223 kts 164°
2026-05-05 21:47 45.64987 8.86307 6321 ft 224 kts 162°
2026-05-05 21:47 45.63538 8.87015 6169 ft 224 kts 161°
2026-05-05 21:48 45.62073 8.87765 6047 ft 222 kts 161°
2026-05-05 21:48 45.60606 8.88517 5924 ft 227 kts 167°
2026-05-05 21:48 45.59016 8.88791 5952 ft 235 kts 174°
2026-05-05 21:48 45.57388 8.89066 5979 ft 234 kts 173°
2026-05-05 21:49 45.55814 8.89405 5986 ft 223 kts 171°
2026-05-05 21:49 45.54318 8.89769 5994 ft 213 kts 170°
2026-05-05 21:49 45.52868 8.90148 5998 ft 212 kts 170°
2026-05-05 21:49 45.51431 8.90530 6012 ft 210 kts 170°
2026-05-05 21:50 45.49988 8.90916 5998 ft 211 kts 170°
2026-05-05 21:50 45.48544 8.91303 5995 ft 211 kts 170°
2026-05-05 21:50 45.47104 8.91691 5994 ft 211 kts 170°
2026-05-05 21:50 45.45662 8.92080 5995 ft 210 kts 170°
2026-05-05 21:51 45.44219 8.92470 5998 ft 212 kts 170°
2026-05-05 21:51 45.42779 8.92859 5997 ft 211 kts 170°
2026-05-05 21:51 45.41335 8.93251 5996 ft 211 kts 170°
2026-05-05 21:51 45.39897 8.93643 5993 ft 211 kts 170°
2026-05-05 21:52 45.37017 8.94422 5993 ft 211 kts 170°
2026-05-05 21:52 45.35576 8.94811 5994 ft 210 kts 171°
2026-05-05 21:52 45.34143 8.95198 5996 ft 210 kts 171°
2026-05-05 21:53 45.32704 8.95587 5993 ft 210 kts 171°
2026-05-05 21:53 45.31267 8.95974 5992 ft 210 kts 171°
2026-05-05 21:53 45.29832 8.96363 5993 ft 210 kts 171°
2026-05-05 21:53 45.28401 8.96752 5992 ft 210 kts 171°
2026-05-05 21:54 45.26964 8.97141 5975 ft 210 kts 171°
2026-05-05 21:54 45.25530 8.97530 5976 ft 209 kts 171°
2026-05-05 21:54 45.24117 8.97914 5978 ft 210 kts 171°
2026-05-05 21:54 45.22685 8.98302 5978 ft 209 kts 171°
2026-05-05 21:55 45.21237 8.98692 5978 ft 209 kts 171°
2026-05-05 21:55 45.19799 8.98811 5972 ft 208 kts 193°
2026-05-05 21:55 45.18588 8.97822 5984 ft 208 kts 227°
2026-05-05 21:55 45.17973 8.95964 5833 ft 215 kts 260°
2026-05-05 21:56 45.18162 8.93864 5607 ft 217 kts 284°
2026-05-05 21:56 45.18659 8.91852 5460 ft 216 kts 287°
2026-05-05 21:56 45.19178 8.89852 5342 ft 217 kts 287°
2026-05-05 21:56 45.19702 8.87856 5209 ft 216 kts 289°
2026-05-05 21:57 45.20607 8.86150 5085 ft 220 kts 317°
2026-05-05 21:57 45.22002 8.85243 4968 ft 223 kts 343°
2026-05-05 21:57 45.23514 8.84725 4847 ft 223 kts 346°
2026-05-05 21:57 45.25028 8.84256 4735 ft 223 kts 346°
2026-05-05 21:58 45.26541 8.83795 4608 ft 222 kts 347°
2026-05-05 21:58 45.28054 8.83338 4479 ft 221 kts 347°
2026-05-05 21:58 45.29558 8.82881 4347 ft 221 kts 347°
2026-05-05 21:58 45.31058 8.82429 4227 ft 220 kts 347°
2026-05-05 21:59 45.32551 8.81982 4102 ft 219 kts 347°
2026-05-05 21:59 45.34039 8.81536 4014 ft 217 kts 347°
2026-05-05 21:59 45.35518 8.81094 3996 ft 218 kts 348°
2026-05-05 21:59 45.37008 8.80654 3998 ft 216 kts 348°
2026-05-05 22:00 45.38437 8.80236 3984 ft 203 kts 348°
2026-05-05 22:00 45.39789 8.79843 3993 ft 195 kts 348°
2026-05-05 22:00 45.41085 8.79468 3994 ft 186 kts 348°
2026-05-05 22:00 45.42354 8.79103 4000 ft 186 kts 348°
2026-05-05 22:01 45.43627 8.78742 3998 ft 187 kts 348°
2026-05-05 22:01 45.44902 8.78378 4000 ft 187 kts 348°
2026-05-05 22:01 45.46189 8.78015 3851 ft 190 kts 349°
2026-05-05 22:01 45.47490 8.77649 3602 ft 191 kts 349°
2026-05-05 22:02 45.48799 8.77277 3341 ft 192 kts 349°
2026-05-05 22:02 45.50108 8.76902 3082 ft 192 kts 349°
2026-05-05 22:02 45.51417 8.76526 2813 ft 191 kts 349°
2026-05-05 22:02 45.52711 8.76156 2555 ft 188 kts 350°
2026-05-05 22:03 45.53988 8.75838 2298 ft 185 kts 352°
2026-05-05 22:03 45.55248 8.75511 2036 ft 183 kts 350°
2026-05-05 22:03 45.56459 8.75171 1796 ft 171 kts 350°
2026-05-05 22:03 45.57575 8.74862 1532 ft 157 kts 350°
2026-05-05 22:04 45.58602 8.74579 1330 ft 145 kts 349°
2026-05-05 22:04 45.59573 8.74310 1149 ft 141 kts 349°
2026-05-05 22:04 45.60540 8.74042 959 ft 141 kts 348°
2026-05-05 22:04 45.61497 8.73776 780 ft 140 kts 349°
2026-05-05 22:05 45.62383 8.73526 723 ft 105 kts 346°
2026-05-05 22:05 45.62925 8.73370 729 ft 56 kts 346°
2026-05-05 22:05 45.63211 8.73154 736 ft 44 kts 316°
2026-05-05 22:05 45.63377 8.72811 743 ft 40 kts 303°
2026-05-05 22:06 45.63386 8.72451 745 ft 36 kts 259°
2026-05-05 22:06 45.63336 8.72105 749 ft 33 kts 256°
2026-05-05 22:06 45.63304 8.71853 748 ft 22 kts 259°
2026-05-05 22:06 45.63271 8.71682 746 ft 10 kts 221°
2026-05-05 22:07 45.63220 8.71675 746 ft 8 kts 168°
2026-05-05 22:07 45.63154 8.71694 745 ft 12 kts 169°
2026-05-05 22:07 45.63057 8.71719 743 ft 16 kts 170°
2026-05-05 22:07 45.62936 8.71713 740 ft 19 kts 215°
2026-05-05 22:08 45.62865 8.71633 739 ft 4 kts 205°
2026-05-05 22:08 45.62859 8.71629 739 ft 0 kts 205°